Weather History for KAOO - February, 2013

Change the Weather History Date:

Saturday, February 9, 2013

  Actual Average Record
Temperature  
Mean Temperature 24 °F 28 °F  
Max Temperature 30 °F 36 °F 55 °F (1990)
Min Temperature 18 °F 20 °F 1 °F (1979)
Degree Days  
Heating Degree Days 41 37  
Month to date heating degree days 335  
Since 1 July heating degree days 3888  
Cooling Degree Days 0 0  
Month to date cooling degree days 0  
Year to date cooling degree days 0  
Moisture  
Dew Point 13 °F    
Average Humidity 65    
Maximum Humidity 75    
Minimum Humidity 49    
Precipitation  
Precipitation 0.00 in 0.08 in 0.49 in (2005)
Month to date precipitation 0.65  
Year to date precipitation 2.82  
Sea Level Pressure  
Sea Level Pressure 30.28 in    
Wind  
Wind Speed 16 mph (NW)    
Max Wind Speed 24 mph    
Max Gust Speed 34 mph    
Visibility 9 miles    
Events Snow    
T = Trace of Precipitation, MM = Missing Value Source: NWS Daily Summary

Daily Weather History Graph

Daily Weather History Graph

Search for Another Location

Airport or City:

Trip Planner

Search our weather history database for the weather conditions in past years. The results will help you decide how hot, cold, wet, or windy it might be!

Date:

Astronomy

Feb. 09, 2013 Rise Set
Actual Time 7:13 AM EST 5:41 PM EST
Civil Twilight 6:45 AM EST 6:10 PM EST
Nautical Twilight 6:13 AM EST 6:42 PM EST
Astronomical Twilight 5:41 AM EST 7:13 PM EST
Moon 6:24 AM EST (2/9) 5:22 PM EST (2/9)
Length of Visible Light 11h 24m
Length of Day
10h 28m
Waning Crescent, 0% of the Moon is Illuminated
Feb 9
Waning Crescent
Feb 10
New
Feb 17
First Quarter
Feb 25
Full
Mar 4
Last Quarter

Hourly Weather History & Observations

Time (EST) Temp. Windchill Dew Point Humidity Pressure Visibility Wind Dir Wind Speed Gust Speed Precip Events Conditions
12:53 AM 23.0 °F 8.3 °F 15.1 °F 72% 30.04 in 6.0 mi NW 19.6 mph 33.4 mph 0.00 in Snow Light Snow
1:53 AM 21.9 °F 6.2 °F 15.1 °F 75% 30.06 in 5.0 mi NW 21.9 mph 27.6 mph 0.00 in Snow Light Snow
2:53 AM 21.9 °F 5.5 °F 14.0 °F 72% 30.10 in 3.0 mi NW 24.2 mph 34.5 mph 0.00 in Snow Light Snow
3:53 AM 21.0 °F 7.1 °F 14.0 °F 74% 30.13 in 4.0 mi NW 16.1 mph 27.6 mph 0.00 in Snow Light Snow
4:53 AM 19.9 °F 5.7 °F 12.9 °F 74% 30.17 in 7.0 mi NW 16.1 mph 26.5 mph 0.00 in Snow Light Snow
5:53 AM 19.9 °F 7.3 °F 12.0 °F 71% 30.20 in 10.0 mi NW 12.7 mph - 0.00 in   Overcast
6:53 AM 19.9 °F 6.2 °F 12.0 °F 71% 30.25 in 10.0 mi NW 15.0 mph 20.7 mph 0.00 in Snow Light Snow
7:53 AM 19.0 °F 3.2 °F 12.0 °F 74% 30.29 in 4.0 mi NW 19.6 mph 25.3 mph 0.00 in Snow Light Snow
8:53 AM 19.0 °F 3.2 °F 10.9 °F 71% 30.30 in 6.0 mi NNW 19.6 mph 33.4 mph 0.00 in Snow Light Snow
9:53 AM 21.0 °F 7.6 °F 12.0 °F 68% 30.32 in 10.0 mi NW 15.0 mph 20.7 mph 0.00 in   Overcast
10:53 AM 23.0 °F 10.6 °F 12.0 °F 63% 30.33 in 10.0 mi NNW 13.8 mph - 0.00 in   Overcast
11:35 AM 24.8 °F 11.9 °F 12.2 °F 59% 30.26 in 10.0 mi NW 16.1 mph 19.6 mph N/A   Scattered Clouds
11:53 AM 25.0 °F 14.8 °F 14.0 °F 63% 30.32 in 10.0 mi NNW 10.4 mph - N/A   Clear
12:53 PM 26.1 °F 13.1 °F 14.0 °F 60% 30.30 in 10.0 mi NW 17.3 mph 24.2 mph N/A   Clear
1:53 PM 28.0 °F 17.0 °F 15.1 °F 58% 30.31 in 10.0 mi NNW 13.8 mph - N/A   Clear
2:53 PM 28.9 °F 18.2 °F 14.0 °F 54% 30.30 in 10.0 mi NNW 13.8 mph 23.0 mph N/A   Clear
3:53 PM 30.0 °F 19.5 °F 14.0 °F 51% 30.32 in 10.0 mi NNW 13.8 mph - N/A   Clear
4:53 PM 30.0 °F 20.0 °F 12.9 °F 49% 30.32 in 10.0 mi NW 12.7 mph - N/A   Clear
5:53 PM 28.0 °F 18.6 °F 12.0 °F 51% 30.36 in 10.0 mi NW 10.4 mph - N/A   Clear
6:53 PM 26.1 °F 17.6 °F 12.9 °F 58% 30.37 in 10.0 mi NW 8.1 mph - N/A   Clear
7:53 PM 24.1 °F 17.0 °F 12.9 °F 62% 30.38 in 10.0 mi WNW 5.8 mph - N/A   Clear
8:53 PM 21.0 °F - 12.0 °F 68% 30.40 in 10.0 mi Calm Calm - N/A   Clear
9:53 PM 18.0 °F 12.7 °F 10.9 °F 74% 30.41 in 10.0 mi SE 3.5 mph - N/A   Clear
10:53 PM 21.0 °F 14.6 °F 10.9 °F 65% 30.41 in 10.0 mi WSW 4.6 mph - N/A   Clear
11:53 PM 19.0 °F - 10.9 °F 71% 30.41 in 10.0 mi Calm Calm - N/A   Clear